Other Surface Observations
Issued by NWS

Home | Current Version | Previous Version | Text Only | Print | Product List | Glossary On
Versions: 1 2 3 4 5 6 7 8 9 10 11 12 13 14 15 16 17 18 19 20 21 22 23 24 25 26 27 28 29 30 31 32 33 34 35 36 37 38 39 40 41 42 43 44 45 46 47 48 49 50
396
SXUS52 KTAE 252019
OSOTAE
OSOTAE
North Florida/South Alabama/Southwest Georgia Weather Roundup
National Weather Service Tallahassee Florida
400 PM EDT SUN JUN 25 2017

Note: "fair" indicates few or no clouds below 12,000 feet with no
significant weather and/or obstructions to visibility.

!FLZ017-115-028-034-025-252100
...North Florida...

CITY           SKY/WX    TMP DP  RH WIND       PRES   REMARKS
TALLAHASSEE    TSTM      82  74  76 SW3       30.07F
APALACHICOLA   CLOUDY    88  80  77 S13       30.07F HX 104
PERRY          PTSUNNY   90  71  53 SW10      30.07F HX  96
CROSS CITY     SUNNY     90  72  55 SW9G16    30.06F HX  96
JACKSONVILLE   PTSUNNY   94  72  48 W8        30.02F HX 102
$$

!FLZ112-006-005-002-011-252100
...Florida Panhandle...

CITY           SKY/WX    TMP DP  RH WIND       PRES   REMARKS
MARIANNA       CLOUDY    75  73  93 SE8       30.07S
BONIFAY        NOT AVBL
PANAMA CITY NW PTSUNNY   76  73  91 W9        30.07S THUNDER
TYNDALL AFB    PTSUNNY   84  73  70 NW7       30.07S HX  91
TYND DRONE APT MOCLDY    85  80  85 W7        30.07S HX  98
DE FUNIAK SPR  MOCLDY    84  73  71 N7        30.08S HX  90
EGLIN AFB      TSTM      77  75  94 SW7       30.07F FOG
DESTIN         CLOUDY    82  32  16 VRB5      30.07S
HURLBURT       HVY RAIN  75  72  88 NE8       30.06F FOG
CRESTVIEW      CLOUDY    87  72  60 N13       30.09F HX  93
PENSACOLA      CLOUDY    88  73  61 NW5       30.07S HX  95
$$

!ALZ063-066-252100
...South Alabama...

CITY           SKY/WX    TMP DP  RH WIND       PRES   REMARKS
DOTHAN         CLOUDY    86  70  58 N12       30.11F HX  90
OZARK CAIRNS   CLOUDY    87  69  55 NW12      30.08S HX  91
FT RUCKER HELI MOSUNNY   86  69  56 N8        30.08F HX  90
RUCKER HELI 3  FAIR      86  68  54 N12       30.08S
RUCKER HELI 2  FAIR      88  68  52 N8        30.07F HX  91
FLORALA APT    CLOUDY    85  69  58 N6        30.10F
ANDALUSIA      CLOUDY    90  71  53 N6        30.09F HX  96
TROY           MOSUNNY   85  67  54 N14       30.11F
EUFALA         FAIR      87  68  52 VRB7      30.07F HX  90
MOBILE         PTSUNNY   88  70  55 N10       30.10F HX  93
$$

!GAZ120>161-252100
...Southwest and South Central Georgia...

CITY           SKY/WX    TMP DP  RH WIND       PRES   REMARKS
THOMASVILLE    LGT RAIN  75  75 100 CALM      30.08F
BAINBRIDGE     CLOUDY    81  75  83 NW9G20    30.07S
MOODY AFB      LGT RAIN  76  73  88 SW6       30.05F
VALDOSTA       LGT RAIN  77  74  90 SW5       30.06F
MOULTRIE       LGT RAIN  77  73  88 CALM      30.09R
BLAKELY        CLOUDY    88  70  55 N5        30.07S HX  92
ALBANY         CLOUDY    82  76  81 S7        30.08R
TIFTON         TSTM      74  74 100 CALM      30.09R
FITZGERALD     CLOUDY    84  78  82 W5        30.07S HX  95
CORDELE        FAIR      92  66  42 N7        30.07S HX  95
AMERICUS       FAIR      88  61  40 N9G18     30.08F
HOMERVILLE     CLOUDY    81  79  94 SW6       30.06S
$$

!GMZ750-755-770-775-252100
...Coastal and Buoy Obs...

STATION/POSITION TIME  TEMP    WIND        PRES    VSBY  WAVE
                       AIR SEA DIR/SP/G                  HT/PER
                 (UTC) (F)     (DEG/KT/KT) (MB)    (MI)  (FT/S)
KEATON BEACH     2000   83     240/  9/ 10 1018.0F
CEDAR KEY        2000   85     230/  4/  7 1018.8F
C TOWER          2000   82     230/  8/ 10 1018.9F
APALACHICOLA BUO 1950   83 89  190/  4/  6 1018.7F         2/ 6
PANAMA CITY BUOY 1950   83 86  230/  2/  4 1018.8F         2/ 7
MOBILE BUOY      2000   83 84   20/  2/  4 1018.8
ORANGE BCH AL BU 1950   81 85  350/ 14/ 16 1018.1F         1/ 7
$$




USA.gov is the U.S. government's official web portal to all federal, state and local government web resources and services.